OK6FS-6 Weather Reports


Display with metric or nautical units.
time (UTC)temp
F
wind
direction
speed
MPH
gust
MPH
rain 1hr
in
rain 24hr
in
rain mn
in
humidity
%
barometer
mb
20260507200632 64 211 0.0 1.0 0.00 0.00 0.00 73 1016.3
20260507195439 64 0.0 0.0 0.00 0.00 0.00 71 1016.2
20260507194246 64 338 0.0 0.0 0.00 0.00 0.00 71 1016.1
20260507193047 64 308 0.0 0.0 0.00 0.00 0.00 71 1016.0
20260507191844 64 0.0 0.0 0.00 0.00 0.00 69 1015.9
20260507190631 65 0.0 0.0 0.00 0.00 0.00 68 1015.7
20260507185439 65 0.0 0.0 0.00 0.00 0.00 67 1015.7
20260507184245 65 0.0 0.0 0.00 0.00 0.00 63 1015.6
20260507183042 66 293 1.0 1.0 0.00 0.00 0.00 65 1015.5
20260507181908 65 228 0.0 2.0 0.00 0.00 0.00 65 1015.4
20260507180654 65 271 1.0 2.0 0.00 0.00 0.00 65 1015.3
20260507175450 65 242 1.0 4.0 0.00 0.00 0.00 64 1015.1
20260507174232 65 34 1.0 2.0 0.00 0.00 0.00 61 1014.9
20260507173030 66 187 1.0 2.0 0.00 0.00 0.00 58 1014.8
20260507171836 67 296 3.0 6.0 0.00 0.00 0.00 54 1014.9
20260507170623 68 237 7.0 10.0 0.00 0.00 0.00 49 1014.7
20260507165430 70 233 5.0 6.0 0.00 0.00 0.00 46 1014.3
20260507164257 72 249 4.0 5.0 0.00 0.00 0.00 44 1014.0
20260507163033 73 218 2.0 4.0 0.00 0.00 0.00 42 1013.8
20260507161851 74 276 2.0 3.0 0.00 0.00 0.00 41 1013.8
20260507160638 74 254 3.0 6.0 0.00 0.00 0.00 40 1013.8
20260507155435 74 267 4.0 6.0 0.00 0.00 0.00 40 1013.6
20260507154232 75 280 4.0 7.0 0.00 0.00 0.00 39 1013.7
20260507153030 76 315 2.0 4.0 0.00 0.00 0.00 39 1013.8
20260507151857 76 277 4.0 9.0 0.00 0.00 0.00 39 1013.8
20260507150634 76 284 4.0 9.0 0.00 0.00 0.00 40 1013.7
20260507145431 75 313 3.0 4.0 0.00 0.00 0.00 42 1013.7
20260507144259 75 304 2.0 4.0 0.00 0.00 0.00 42 1013.7
20260507143025 75 220 1.0 4.0 0.00 0.00 0.00 41 1013.7
20260507141831 75 253 2.0 3.0 0.00 0.00 0.00 41 1013.8
20260507140628 75 307 2.0 3.0 0.00 0.00 0.00 40 1013.8
20260507135436 76 326 1.0 2.0 0.00 0.00 0.00 39 1013.8
20260507134242 77 287 2.0 5.0 0.00 0.00 0.00 40 1013.8
20260507133020 76 188 2.0 2.0 0.00 0.00 0.00 40 1013.9
20260507131827 76 237 1.0 2.0 0.00 0.00 0.00 42 1014.0
20260507130644 76 246 3.0 4.0 0.00 0.00 0.00 41 1014.1
20260507125441 75 262 3.0 5.0 0.00 0.00 0.00 41 1014.3
20260507124228 77 226 3.0 4.0 0.00 0.00 0.00 39 1014.3
20260507123115 78 277 4.0 9.0 0.00 0.00 0.00 40 1014.2
20260507121832 75 333 1.0 2.0 0.00 0.00 0.00 41 1014.4
20260507120649 75 274 4.0 7.0 0.00 0.00 0.00 40 1014.6
20260507115426 76 311 2.0 4.0 0.00 0.00 0.00 40 1014.6
20260507114240 76 305 2.0 4.0 0.00 0.00 0.00 39 1014.8
20260507113024 76 268 3.0 5.0 0.00 0.00 0.00 38 1014.9
20260507111825 76 298 2.0 4.0 0.00 0.00 0.00 40 1015.0
20260507110631 76 304 3.0 6.0 0.00 0.00 0.00 40 1015.1
20260507105439 76 308 2.0 3.0 0.00 0.00 0.00 43 1015.1
20260507104246 73 276 3.0 6.0 0.00 0.00 0.00 45 1015.2
20260507103023 71 263 3.0 5.0 0.00 0.00 0.00 45 1015.4
20260507101830 72 269 2.0 4.0 0.00 0.00 0.00 45 1015.4
20260507100626 72 244 4.0 7.0 0.00 0.00 0.00 44 1015.3
20260507095432 72 267 5.0 7.0 0.00 0.00 0.00 45 1015.3
20260507094229 72 325 3.0 3.0 0.00 0.00 0.00 46 1015.2
20260507093024 70 254 2.0 3.0 0.00 0.00 0.00 49 1015.2
20260507091831 69 300 3.0 7.0 0.00 0.00 0.00 49 1015.1
20260507090653 69 256 4.0 6.0 0.00 0.00 0.00 51 1015.1
20260507085439 67 274 5.0 9.0 0.00 0.00 0.00 53 1015.1
20260507084305 67 241 6.0 8.0 0.00 0.00 0.00 53 1015.0
20260507083042 67 218 5.0 9.0 0.00 0.00 0.00 54 1014.8
20260507081829 67 253 6.0 11.0 0.00 0.00 0.00 54 1014.5
20260507080633 67 274 5.0 8.0 0.00 0.00 0.00 54 1014.4
20260507075430 68 248 3.0 7.0 0.00 0.00 0.00 53 1014.3
20260507074237 68 237 5.0 9.0 0.00 0.00 0.00 54 1014.3
20260507073115 67 274 5.0 8.0 0.00 0.00 0.00 56 1014.3
20260507071827 64 256 5.0 9.0 0.00 0.00 0.00 63 1014.3
20260507070631 63 270 6.0 9.0 0.00 0.00 0.00 64 1014.3
20260507065438 63 249 6.0 11.0 0.00 0.00 0.00 65 1014.3
20260507064246 62 268 5.0 8.0 0.00 0.00 0.00 69 1014.3
20260507063032 62 264 4.0 7.0 0.00 0.00 0.00 68 1014.3
20260507061829 63 262 5.0 11.0 0.00 0.00 0.00 67 1014.1
20260507060637 62 279 8.0 11.0 0.00 0.00 0.00 68 1013.9
20260507055443 63 282 5.0 10.0 0.00 0.00 0.00 70 1013.6
20260507054240 62 257 5.0 6.0 0.00 0.00 0.00 72 1013.6
20260507053048 62 256 5.0 7.0 0.00 0.00 0.00 74 1013.5
20260507051835 62 250 3.0 4.0 0.00 0.00 0.00 75 1013.3
20260507050632 62 258 3.0 7.0 0.00 0.00 0.00 75 1013.3
20260507045438 61 274 4.0 6.0 0.00 0.00 0.00 76 1013.1
20260507044235 61 277 2.0 4.0 0.00 0.00 0.00 77 1013.0
20260507043051 61 299 2.0 3.0 0.00 0.00 0.00 77 1012.7
20260507041848 61 289 3.0 5.0 0.00 0.00 0.00 78 1012.6
20260507040625 61 281 3.0 6.0 0.00 0.00 0.00 77 1012.5
20260507035432 61 287 2.0 3.0 0.00 0.00 0.00 77 1012.4
20260507034229 61 288 3.0 5.0 0.00 0.00 0.00 77 1012.3
20260507033037 61 282 4.0 6.0 0.00 0.00 0.00 79 1012.1
20260507031854 61 278 4.0 6.0 0.00 0.00 0.00 78 1012.0
20260507030631 61 272 3.0 5.0 0.00 0.00 0.00 77 1011.9
20260507025448 61 280 3.0 7.0 0.00 0.00 0.00 78 1011.9
20260507024244 61 301 4.0 6.0 0.00 0.00 0.00 77 1011.8
20260507023032 61 264 4.0 6.0 0.00 0.00 0.00 76 1011.8
20260507021838 61 285 3.0 8.0 0.00 0.00 0.00 76 1011.5
20260507020635 61 280 5.0 8.0 0.00 0.00 0.00 76 1011.7
20260507015442 62 258 5.0 7.0 0.00 0.00 0.00 76 1011.5
20260507014229 62 258 5.0 6.0 0.00 0.00 0.00 76 1011.3
20260507013036 62 270 5.0 12.0 0.00 0.00 0.00 75 1011.3
20260507011823 62 249 5.0 12.0 0.00 0.00 0.00 74 1011.2
20260507010630 62 265 6.0 8.0 0.00 0.00 0.00 75 1011.0
20260507005437 62 271 6.0 9.0 0.00 0.00 0.00 73 1010.7
20260507004235 63 259 4.0 6.0 0.00 0.00 0.00 72 1010.5
20260507003032 63 253 3.0 4.0 0.00 0.00 0.00 73 1010.4
20260507001854 63 293 4.0 7.0 0.00 0.00 0.00 73 1010.3
20260507000645 63 272 4.0 6.0 0.00 0.00 0.00 74 1010.3
20260506235432 63 280 7.0 11.0 0.00 0.00 0.00 74 1010.3
20260506234249 63 278 5.0 8.0 0.00 0.00 0.00 72 1010.1
20260506233026 64 289 4.0 7.0 0.00 0.00 0.00 70 1009.8
20260506231844 64 274 4.0 6.0 0.00 0.00 0.00 67 1009.7
20260506230651 64 266 4.0 6.0 0.00 0.00 0.00 65 1009.4
20260506225438 65 268 3.0 6.0 0.00 0.00 0.00 64 1009.2
20260506224245 65 266 5.0 7.0 0.00 0.00 0.00 62 1009.1
20260506223052 65 260 4.0 5.0 0.00 0.00 0.00 60 1009.0
20260506221819 66 266 3.0 5.0 0.00 0.00 0.00 58 1008.7
20260506220627 66 287 1.0 2.0 0.00 0.00 0.00 59 1008.4
20260506215454 65 208 5.0 7.0 0.00 0.00 0.00 60 1008.2
20260506214341 65 248 4.0 10.0 0.00 0.00 0.00 61 1007.6
20260506213029 65 203 5.0 8.0 0.00 0.00 0.00 60 1007.3
20260506211847 66 190 5.0 7.0 0.00 0.00 0.00 59 1007.2
20260506210634 66 207 2.0 4.0 0.00 0.00 0.00 59 1007.2
20260506205441 66 156 4.0 7.0 0.00 0.00 0.00 58 1007.1
20260506204249 67 208 4.0 7.0 0.00 0.00 0.00 57 1007.1
20260506203037 67 212 3.0 5.0 0.00 0.00 0.00 57 1007.0
20260506201905 67 329 5.0 10.0 0.00 0.00 0.00 56 1006.8